Year,Month,Day,Hour,Minute,Value (Times are PST for temperature in C)
2016,08,23,00,00,12.50
2016,08,23,00,01,12.50
2016,08,23,00,02,12.50
2016,08,23,00,03,12.60
2016,08,23,00,04,12.60
2016,08,23,00,05,12.50
2016,08,23,00,06,12.50
2016,08,23,00,07,12.50
2016,08,23,00,08,12.50
2016,08,23,00,09,12.50
2016,08,23,00,10,12.40
2016,08,23,00,11,12.40
2016,08,23,00,12,12.40
2016,08,23,00,13,12.40
2016,08,23,00,14,12.40
2016,08,23,00,15,12.40
2016,08,23,00,16,12.30
2016,08,23,00,17,12.30
2016,08,23,00,18,12.30
2016,08,23,00,19,12.30
2016,08,23,00,20,12.30
2016,08,23,00,21,12.30
2016,08,23,00,22,12.30
2016,08,23,00,23,12.20
2016,08,23,00,24,12.20
2016,08,23,00,25,12.20
2016,08,23,00,26,12.20
2016,08,23,00,27,12.20
2016,08,23,00,28,12.20
2016,08,23,00,29,12.20
2016,08,23,00,30,12.10
2016,08,23,00,31,12.10
2016,08,23,00,32,12.10
2016,08,23,00,33,12.10
2016,08,23,00,34,12.00
2016,08,23,00,35,12.00
2016,08,23,00,36,12.00
2016,08,23,00,37,12.00
2016,08,23,00,38,11.90
2016,08,23,00,39,11.90
2016,08,23,00,40,11.90
2016,08,23,00,41,11.90
2016,08,23,00,42,11.90
2016,08,23,00,43,11.90
2016,08,23,00,44,11.80
2016,08,23,00,45,11.80
2016,08,23,00,46,11.80
2016,08,23,00,47,11.80
2016,08,23,00,48,11.80
2016,08,23,00,49,11.80
2016,08,23,00,50,11.80
2016,08,23,00,51,11.70
2016,08,23,00,52,11.70
2016,08,23,00,53,11.70
2016,08,23,00,54,11.70
2016,08,23,00,55,11.70
2016,08,23,00,56,11.70
2016,08,23,00,57,11.60
2016,08,23,00,58,11.60
2016,08,23,00,59,11.60
2016,08,23,01,00,11.60
2016,08,23,01,01,11.60
2016,08,23,01,02,11.60
2016,08,23,01,03,11.60
2016,08,23,01,04,11.50
2016,08,23,01,05,11.50
2016,08,23,01,06,11.50
2016,08,23,01,07,11.50
2016,08,23,01,08,11.50
2016,08,23,01,09,11.40
2016,08,23,01,10,11.40
2016,08,23,01,11,11.40
2016,08,23,01,12,11.40
2016,08,23,01,13,11.40
2016,08,23,01,14,11.40
2016,08,23,01,15,11.30
2016,08,23,01,16,11.30
2016,08,23,01,17,11.30
2016,08,23,01,18,11.30
2016,08,23,01,19,11.30
2016,08,23,01,20,11.30
2016,08,23,01,21,11.30
2016,08,23,01,22,11.30
2016,08,23,01,23,11.30
2016,08,23,01,24,11.30
2016,08,23,01,25,11.30
2016,08,23,01,26,11.30
2016,08,23,01,27,11.30
2016,08,23,01,28,11.30
2016,08,23,01,29,11.30
2016,08,23,01,30,11.30
2016,08,23,01,31,11.30
2016,08,23,01,32,11.30
2016,08,23,01,33,11.30
2016,08,23,01,34,11.30
2016,08,23,01,35,11.30
2016,08,23,01,36,11.30
2016,08,23,01,37,11.30
2016,08,23,01,38,11.30
2016,08,23,01,39,11.30
2016,08,23,01,40,11.30
2016,08,23,01,41,11.30
2016,08,23,01,42,11.30
2016,08,23,01,43,11.30
2016,08,23,01,44,11.30
2016,08,23,01,45,11.30
2016,08,23,01,46,11.30
2016,08,23,01,47,11.30
2016,08,23,01,48,11.30
2016,08,23,01,49,11.20
2016,08,23,01,50,11.20
2016,08,23,01,51,11.20
2016,08,23,01,52,11.20
2016,08,23,01,53,11.20
2016,08,23,01,54,11.20
2016,08,23,01,55,11.30
2016,08,23,01,56,11.30
2016,08,23,01,57,11.30
2016,08,23,01,58,11.30
2016,08,23,01,59,11.30
2016,08,23,02,00,11.30
2016,08,23,02,01,11.30
2016,08,23,02,02,11.30
2016,08,23,02,03,11.30
2016,08,23,02,04,11.20
2016,08,23,02,05,11.20
2016,08,23,02,06,11.20
2016,08,23,02,07,11.20
2016,08,23,02,08,11.20
2016,08,23,02,09,11.20
2016,08,23,02,10,11.20
2016,08,23,02,11,11.20
2016,08,23,02,12,11.10
2016,08,23,02,13,11.10
2016,08,23,02,14,11.10
2016,08,23,02,15,11.10
2016,08,23,02,16,11.10
2016,08,23,02,17,11.10
2016,08,23,02,18,11.10
2016,08,23,02,19,11.10
2016,08,23,02,20,11.00
2016,08,23,02,21,11.00
2016,08,23,02,22,11.00
2016,08,23,02,23,11.00
2016,08,23,02,24,11.00
2016,08,23,02,25,11.00
2016,08,23,02,26,10.90
2016,08,23,02,27,10.90
2016,08,23,02,28,10.90
2016,08,23,02,29,10.90
2016,08,23,02,30,10.90
2016,08,23,02,31,10.90
2016,08,23,02,32,10.90
2016,08,23,02,33,10.90
2016,08,23,02,34,10.90
2016,08,23,02,35,10.90
2016,08,23,02,36,10.90
2016,08,23,02,37,10.90
2016,08,23,02,38,10.90
2016,08,23,02,39,10.90
2016,08,23,02,40,10.90
2016,08,23,02,41,10.80
2016,08,23,02,42,10.80
2016,08,23,02,43,10.80
2016,08,23,02,44,10.80
2016,08,23,02,45,10.80
2016,08,23,02,46,10.80
2016,08,23,02,47,10.90
2016,08,23,02,48,10.90
2016,08,23,02,49,10.90
2016,08,23,02,50,10.90
2016,08,23,02,51,10.90
2016,08,23,02,52,10.90
2016,08,23,02,53,10.90
2016,08,23,02,54,10.90
2016,08,23,02,55,10.90
2016,08,23,02,56,10.90
2016,08,23,02,57,10.90
2016,08,23,02,58,11.00
2016,08,23,02,59,11.00
2016,08,23,03,00,11.00
2016,08,23,03,01,11.00
2016,08,23,03,02,11.00
2016,08,23,03,03,11.00
2016,08,23,03,04,11.00
2016,08,23,03,05,11.00
2016,08,23,03,06,11.00
2016,08,23,03,07,11.00
2016,08,23,03,08,11.00
2016,08,23,03,09,11.00
2016,08,23,03,10,11.10
2016,08,23,03,11,11.10
2016,08,23,03,12,11.10
2016,08,23,03,13,11.10
2016,08,23,03,14,11.10
2016,08,23,03,15,11.10
2016,08,23,03,16,11.10
2016,08,23,03,17,11.10
2016,08,23,03,18,11.10
2016,08,23,03,19,11.10
2016,08,23,03,20,11.10
2016,08,23,03,21,11.10
2016,08,23,03,22,11.10
2016,08,23,03,23,11.10
2016,08,23,03,24,11.10
2016,08,23,03,25,11.10
2016,08,23,03,26,11.10
2016,08,23,03,27,11.10
2016,08,23,03,28,11.20
2016,08,23,03,29,11.20
2016,08,23,03,30,11.20
2016,08,23,03,31,11.20
2016,08,23,03,32,11.20
2016,08,23,03,33,11.10
2016,08,23,03,34,11.10
2016,08,23,03,35,11.10
2016,08,23,03,36,11.10
2016,08,23,03,37,11.10
2016,08,23,03,38,11.10
2016,08,23,03,39,11.10
2016,08,23,03,40,11.10
2016,08,23,03,41,11.10
2016,08,23,03,42,11.10
2016,08,23,03,43,11.10
2016,08,23,03,44,11.10
2016,08,23,03,45,11.10
2016,08,23,03,46,11.10
2016,08,23,03,47,11.10
2016,08,23,03,48,11.10
2016,08,23,03,49,11.10
2016,08,23,03,50,11.10
2016,08,23,03,51,11.00
2016,08,23,03,52,11.00
2016,08,23,03,53,11.00
2016,08,23,03,54,11.00
2016,08,23,03,55,11.00
2016,08,23,03,56,11.00
2016,08,23,03,57,10.90
2016,08,23,03,58,10.90
2016,08,23,03,59,10.90
2016,08,23,04,00,10.90
2016,08,23,04,01,10.90
2016,08,23,04,02,10.90
2016,08,23,04,03,10.90
2016,08,23,04,04,10.90
2016,08,23,04,05,10.90
2016,08,23,04,06,10.90
2016,08,23,04,07,10.90
2016,08,23,04,08,10.90
2016,08,23,04,09,10.80
2016,08,23,04,10,10.80
2016,08,23,04,11,10.80
2016,08,23,04,12,10.80
2016,08,23,04,13,10.80
2016,08,23,04,14,10.80
2016,08,23,04,15,10.80
2016,08,23,04,16,10.80
2016,08,23,04,17,10.70
2016,08,23,04,18,10.70
2016,08,23,04,19,10.70
2016,08,23,04,20,10.70
2016,08,23,04,21,10.70
2016,08,23,04,22,10.70
2016,08,23,04,23,10.70
2016,08,23,04,24,10.70
2016,08,23,04,25,10.70
2016,08,23,04,26,10.60
2016,08,23,04,27,10.60
2016,08,23,04,28,10.60
2016,08,23,04,29,10.60
2016,08,23,04,30,10.60
2016,08,23,04,31,10.60
2016,08,23,04,32,10.60
2016,08,23,04,33,10.60
2016,08,23,04,34,10.60
2016,08,23,04,35,10.60
2016,08,23,04,36,10.60
2016,08,23,04,37,10.60
2016,08,23,04,38,10.60
2016,08,23,04,39,10.60
2016,08,23,04,40,10.60
2016,08,23,04,41,10.60
2016,08,23,04,42,10.60
2016,08,23,04,43,10.60
2016,08,23,04,44,10.60
2016,08,23,04,45,10.60
2016,08,23,04,46,10.60
2016,08,23,04,47,10.50
2016,08,23,04,48,10.50
2016,08,23,04,49,10.50
2016,08,23,04,50,10.50
2016,08,23,04,51,10.50
2016,08,23,04,52,10.40
2016,08,23,04,53,10.40
2016,08,23,04,54,10.40
2016,08,23,04,55,10.40
2016,08,23,04,56,10.40
2016,08,23,04,57,10.40
2016,08,23,04,58,10.40
2016,08,23,04,59,10.40
2016,08,23,05,00,10.40
2016,08,23,05,01,10.40
2016,08,23,05,02,10.40
2016,08,23,05,03,10.40
2016,08,23,05,04,10.40
2016,08,23,05,05,10.40
2016,08,23,05,06,10.40
2016,08,23,05,07,10.40
2016,08,23,05,08,10.30
2016,08,23,05,09,10.30
2016,08,23,05,10,10.30
2016,08,23,05,11,10.30
2016,08,23,05,12,10.30
2016,08,23,05,13,10.30
2016,08,23,05,14,10.30
2016,08,23,05,15,10.30
2016,08,23,05,16,10.30
2016,08,23,05,17,10.30
2016,08,23,05,18,10.30
2016,08,23,05,19,10.30
2016,08,23,05,20,10.30
2016,08,23,05,21,10.30
2016,08,23,05,22,10.30
2016,08,23,05,23,10.30
2016,08,23,05,24,10.30
2016,08,23,05,25,10.30
2016,08,23,05,26,10.30
2016,08,23,05,27,10.30
2016,08,23,05,28,10.30
2016,08,23,05,29,10.30
2016,08,23,05,30,10.30
2016,08,23,05,31,10.30
2016,08,23,05,32,10.30
2016,08,23,05,33,10.20
2016,08,23,05,34,10.20
2016,08,23,05,35,10.20
2016,08,23,05,36,10.20
2016,08,23,05,37,10.20
2016,08,23,05,38,10.20
2016,08,23,05,39,10.20
2016,08,23,05,40,10.20
2016,08,23,05,41,10.20
2016,08,23,05,42,10.20
2016,08,23,05,43,10.20
2016,08,23,05,44,10.20
2016,08,23,05,45,10.20
2016,08,23,05,46,10.20
2016,08,23,05,47,10.10
2016,08,23,05,48,10.10
2016,08,23,05,49,10.10
2016,08,23,05,50,10.10
2016,08,23,05,51,10.10
2016,08,23,05,52,10.10
2016,08,23,05,53,10.10
2016,08,23,05,54,10.20
2016,08,23,05,55,10.20
2016,08,23,05,56,10.20
2016,08,23,05,57,10.20
2016,08,23,05,58,10.20
2016,08,23,05,59,10.10
2016,08,23,06,00,10.10
2016,08,23,06,01,10.10
2016,08,23,06,02,10.10
2016,08,23,06,03,10.10
2016,08,23,06,04,10.10
2016,08,23,06,05,10.00
2016,08,23,06,06,10.00
2016,08,23,06,07,10.00
2016,08,23,06,08,10.00
2016,08,23,06,09,10.00
2016,08,23,06,10,10.00
2016,08,23,06,11,10.00
2016,08,23,06,12,10.10
2016,08,23,06,13,10.00
2016,08,23,06,14,10.00
2016,08,23,06,15,10.00
2016,08,23,06,16,10.00
2016,08,23,06,17,10.00
2016,08,23,06,18,10.00
2016,08,23,06,19,10.00
2016,08,23,06,20,10.00
2016,08,23,06,21,10.00
2016,08,23,06,22,10.00
2016,08,23,06,23,10.10
2016,08,23,06,24,10.10
2016,08,23,06,25,10.10
2016,08,23,06,26,10.10
2016,08,23,06,27,10.10
2016,08,23,06,28,10.10
2016,08,23,06,29,10.10
2016,08,23,06,30,10.10
2016,08,23,06,31,10.10
2016,08,23,06,32,10.20
2016,08,23,06,33,10.20
2016,08,23,06,34,10.20
2016,08,23,06,35,10.20
2016,08,23,06,36,10.20
2016,08,23,06,37,10.30
2016,08,23,06,38,10.30
2016,08,23,06,39,10.40
2016,08,23,06,40,10.40
2016,08,23,06,41,10.50
2016,08,23,06,42,10.50
2016,08,23,06,43,10.60
2016,08,23,06,44,10.70
2016,08,23,06,45,10.70
2016,08,23,06,46,10.80
2016,08,23,06,47,10.80
2016,08,23,06,48,10.80
2016,08,23,06,49,10.90
2016,08,23,06,50,10.90
2016,08,23,06,51,10.90
2016,08,23,06,52,10.90
2016,08,23,06,53,10.90
2016,08,23,06,54,11.00
2016,08,23,06,55,11.00
2016,08,23,06,56,11.10
2016,08,23,06,57,11.10
2016,08,23,06,58,11.10
2016,08,23,06,59,11.10
2016,08,23,07,00,11.20
2016,08,23,07,01,11.20
2016,08,23,07,02,11.20
2016,08,23,07,03,11.20
2016,08,23,07,04,11.20
2016,08,23,07,05,11.20
2016,08,23,07,06,11.20
2016,08,23,07,07,11.20
2016,08,23,07,08,11.20
2016,08,23,07,09,11.20
2016,08,23,07,10,11.20
2016,08,23,07,11,11.20
2016,08,23,07,12,11.30
2016,08,23,07,13,11.30
2016,08,23,07,14,11.30
2016,08,23,07,15,11.30
2016,08,23,07,16,11.30
2016,08,23,07,17,11.40
2016,08,23,07,18,11.40
2016,08,23,07,19,11.40
2016,08,23,07,20,11.50
2016,08,23,07,21,11.60
2016,08,23,07,22,11.60
2016,08,23,07,23,11.70
2016,08,23,07,24,11.70
2016,08,23,07,25,11.80
2016,08,23,07,26,11.80
2016,08,23,07,27,11.90
2016,08,23,07,28,11.90
2016,08,23,07,29,12.00
2016,08,23,07,30,12.10
2016,08,23,07,31,12.10
2016,08,23,07,32,12.10
2016,08,23,07,33,12.20
2016,08,23,07,34,12.20
2016,08,23,07,35,12.30
2016,08,23,07,36,12.30
2016,08,23,07,37,12.30
2016,08,23,07,38,12.40
2016,08,23,07,39,12.40
2016,08,23,07,40,12.50
2016,08,23,07,41,12.50
2016,08,23,07,42,12.60
2016,08,23,07,43,12.60
2016,08,23,07,44,12.70
2016,08,23,07,45,12.70
2016,08,23,07,46,12.80
2016,08,23,07,47,12.80
2016,08,23,07,48,12.90
2016,08,23,07,49,13.00
2016,08,23,07,50,13.10
2016,08,23,07,51,13.20
2016,08,23,07,52,13.20
2016,08,23,07,53,13.30
2016,08,23,07,54,13.30
2016,08,23,07,55,13.40
2016,08,23,07,56,13.40
2016,08,23,07,57,13.50
2016,08,23,07,58,13.50
2016,08,23,07,59,13.60
2016,08,23,08,00,13.60
2016,08,23,08,01,13.70
2016,08,23,08,02,13.80
2016,08,23,08,03,13.90
2016,08,23,08,04,14.00
2016,08,23,08,05,14.10
2016,08,23,08,06,14.20
2016,08,23,08,07,14.30
2016,08,23,08,08,14.40
2016,08,23,08,09,14.40
2016,08,23,08,10,14.50
2016,08,23,08,11,14.60
2016,08,23,08,12,14.60
2016,08,23,08,13,14.70
2016,08,23,08,14,14.70
2016,08,23,08,15,14.70
2016,08,23,08,16,14.80
2016,08,23,08,17,14.90
2016,08,23,08,18,14.90
2016,08,23,08,19,15.00
2016,08,23,08,20,15.00
2016,08,23,08,21,15.10
2016,08,23,08,22,15.20
2016,08,23,08,23,15.30
2016,08,23,08,24,15.40
2016,08,23,08,25,15.50
2016,08,23,08,26,15.50
2016,08,23,08,27,15.60
2016,08,23,08,28,15.70
2016,08,23,08,29,15.80
2016,08,23,08,30,15.80
2016,08,23,08,31,15.90
2016,08,23,08,32,15.90
2016,08,23,08,33,16.00
2016,08,23,08,34,16.00
2016,08,23,08,35,16.10
2016,08,23,08,36,16.10
2016,08,23,08,37,16.10
2016,08,23,08,38,16.10
2016,08,23,08,39,16.20
2016,08,23,08,40,16.20
2016,08,23,08,41,16.20
2016,08,23,08,42,16.30
2016,08,23,08,43,16.30
2016,08,23,08,44,16.40
2016,08,23,08,45,16.40
2016,08,23,08,46,16.40
2016,08,23,08,47,16.50
2016,08,23,08,48,16.50
2016,08,23,08,49,16.60
2016,08,23,08,50,16.60
2016,08,23,08,51,16.60
2016,08,23,08,52,16.70
2016,08,23,08,53,16.70
2016,08,23,08,54,16.70
2016,08,23,08,55,16.80
2016,08,23,08,56,16.80
2016,08,23,08,57,16.80
2016,08,23,08,58,16.90
2016,08,23,08,59,16.90
2016,08,23,09,00,17.00
2016,08,23,09,01,17.10
2016,08,23,09,02,17.10
2016,08,23,09,03,17.20
2016,08,23,09,04,17.20
2016,08,23,09,05,17.30
2016,08,23,09,06,17.30
2016,08,23,09,07,17.40
2016,08,23,09,08,17.40
2016,08,23,09,09,17.40
2016,08,23,09,10,17.50
2016,08,23,09,11,17.50
2016,08,23,09,12,17.60
2016,08,23,09,13,17.60
2016,08,23,09,14,17.60
2016,08,23,09,15,17.70
2016,08,23,09,16,17.70
2016,08,23,09,17,17.70
2016,08,23,09,18,17.80
2016,08,23,09,19,17.80
2016,08,23,09,20,17.80
2016,08,23,09,21,17.80
2016,08,23,09,22,17.90
2016,08,23,09,23,17.90
2016,08,23,09,24,17.90
2016,08,23,09,25,17.90
2016,08,23,09,26,18.00
2016,08,23,09,27,18.00
2016,08,23,09,28,18.00
2016,08,23,09,29,18.10
2016,08,23,09,30,18.10
2016,08,23,09,31,18.10
2016,08,23,09,32,18.20
2016,08,23,09,33,18.20
2016,08,23,09,34,18.20
2016,08,23,09,35,18.20
2016,08,23,09,36,18.30
2016,08,23,09,37,18.30
2016,08,23,09,38,18.40
2016,08,23,09,39,18.40
2016,08,23,09,40,18.40
2016,08,23,09,41,18.40
2016,08,23,09,42,18.40
2016,08,23,09,43,18.50
2016,08,23,09,44,18.50
2016,08,23,09,45,18.50
2016,08,23,09,46,18.60
2016,08,23,09,47,18.60
2016,08,23,09,48,18.60
2016,08,23,09,49,18.60
2016,08,23,09,50,18.60
2016,08,23,09,51,18.60
2016,08,23,09,52,18.50
2016,08,23,09,53,18.50
2016,08,23,09,54,18.50
2016,08,23,09,55,18.50
2016,08,23,09,56,18.50
2016,08,23,09,57,18.50
2016,08,23,09,58,18.50
2016,08,23,09,59,18.50
2016,08,23,10,00,18.50
2016,08,23,10,01,18.50
2016,08,23,10,02,18.50
2016,08,23,10,03,18.60
2016,08,23,10,04,18.60
2016,08,23,10,05,18.70
2016,08,23,10,06,18.70
2016,08,23,10,07,18.80
2016,08,23,10,08,18.80
2016,08,23,10,09,18.80
2016,08,23,10,10,18.80
2016,08,23,10,11,18.80
2016,08,23,10,12,18.80
2016,08,23,10,13,18.80
2016,08,23,10,14,18.80
2016,08,23,10,15,18.80
2016,08,23,10,16,18.90
2016,08,23,10,17,18.90
2016,08,23,10,18,18.90
2016,08,23,10,19,19.00
2016,08,23,10,20,19.10
2016,08,23,10,21,19.10
2016,08,23,10,22,19.10
2016,08,23,10,23,19.10
2016,08,23,10,24,19.10
2016,08,23,10,25,19.10
2016,08,23,10,26,19.10
2016,08,23,10,27,19.10
2016,08,23,10,28,19.10
2016,08,23,10,29,19.10
2016,08,23,10,30,19.10
2016,08,23,10,31,19.10
2016,08,23,10,32,19.10
2016,08,23,10,33,19.10
2016,08,23,10,34,19.20
2016,08,23,10,35,19.20
2016,08,23,10,36,19.30
2016,08,23,10,37,19.30
2016,08,23,10,38,19.20
2016,08,23,10,39,19.20
2016,08,23,10,40,19.10
2016,08,23,10,41,19.10
2016,08,23,10,42,19.10
2016,08,23,10,43,19.10
2016,08,23,10,44,19.10
2016,08,23,10,45,19.10
2016,08,23,10,46,19.20
2016,08,23,10,47,19.20
2016,08,23,10,48,19.20
2016,08,23,10,49,19.30
2016,08,23,10,50,19.30
2016,08,23,10,51,19.30
2016,08,23,10,52,19.30
2016,08,23,10,53,19.30
2016,08,23,10,54,19.40
2016,08,23,10,55,19.40
2016,08,23,10,56,19.50
2016,08,23,10,57,19.50
2016,08,23,10,58,19.50
2016,08,23,10,59,19.50
2016,08,23,11,00,19.60
2016,08,23,11,01,19.50
2016,08,23,11,02,19.50
2016,08,23,11,03,19.40
2016,08,23,11,04,19.40
2016,08,23,11,05,19.40
2016,08,23,11,06,19.40
2016,08,23,11,07,19.40
2016,08,23,11,08,19.40
2016,08,23,11,09,19.40
2016,08,23,11,10,19.40
2016,08,23,11,11,19.50
2016,08,23,11,12,19.50
2016,08,23,11,13,19.60
2016,08,23,11,14,19.60
2016,08,23,11,15,19.70
2016,08,23,11,16,19.70
2016,08,23,11,17,19.70
2016,08,23,11,18,19.70
2016,08,23,11,19,19.70
2016,08,23,11,20,19.70
2016,08,23,11,21,19.80
2016,08,23,11,22,19.80
2016,08,23,11,23,19.80
2016,08,23,11,24,19.80
2016,08,23,11,25,19.80
2016,08,23,11,26,19.80
2016,08,23,11,27,19.80
2016,08,23,11,28,19.80
2016,08,23,11,29,19.80
2016,08,23,11,30,19.80
2016,08,23,11,31,19.80
2016,08,23,11,32,19.80
2016,08,23,11,33,19.80
2016,08,23,11,34,19.80
2016,08,23,11,35,19.80
2016,08,23,11,36,19.80
2016,08,23,11,37,19.80
2016,08,23,11,38,19.80
2016,08,23,11,39,19.80
2016,08,23,11,40,19.80
2016,08,23,11,41,19.80
2016,08,23,11,42,19.80
2016,08,23,11,43,19.70
2016,08,23,11,44,19.70
2016,08,23,11,45,19.60
2016,08,23,11,46,19.60
2016,08,23,11,47,19.60
2016,08,23,11,48,19.60
2016,08,23,11,49,19.70
2016,08,23,11,50,19.70
2016,08,23,11,51,19.70
2016,08,23,11,52,19.80
2016,08,23,11,53,19.80
2016,08,23,11,54,19.80
2016,08,23,11,55,19.90
2016,08,23,11,56,19.90
2016,08,23,11,57,19.90
2016,08,23,11,58,19.90
2016,08,23,11,59,19.90
2016,08,23,12,00,19.90
2016,08,23,12,01,19.90
2016,08,23,12,02,19.90
2016,08,23,12,03,19.90
2016,08,23,12,04,20.00
2016,08,23,12,05,20.00
2016,08,23,12,06,20.00
2016,08,23,12,07,20.10
2016,08,23,12,08,20.10
2016,08,23,12,09,20.10
2016,08,23,12,10,20.10
2016,08,23,12,11,20.10
2016,08,23,12,12,20.10
2016,08,23,12,13,20.10
2016,08,23,12,14,20.20
2016,08,23,12,15,20.20
2016,08,23,12,16,20.20
2016,08,23,12,17,20.20
2016,08,23,12,18,20.10
2016,08,23,12,19,20.20
2016,08,23,12,20,20.20
2016,08,23,12,21,20.20
2016,08,23,12,22,20.20
2016,08,23,12,23,20.20
2016,08,23,12,24,20.30
2016,08,23,12,25,20.30
2016,08,23,12,26,20.30
2016,08,23,12,27,20.40
2016,08,23,12,28,20.40
2016,08,23,12,29,20.40
2016,08,23,12,30,20.40
2016,08,23,12,31,20.40
2016,08,23,12,32,20.40
2016,08,23,12,33,20.40
2016,08,23,12,34,20.40
2016,08,23,12,35,20.40
2016,08,23,12,36,20.40
2016,08,23,12,37,20.40
2016,08,23,12,38,20.40
2016,08,23,12,39,20.40
2016,08,23,12,40,20.40
2016,08,23,12,41,20.40
2016,08,23,12,42,20.40
2016,08,23,12,43,20.40
2016,08,23,12,44,20.40
2016,08,23,12,45,20.40
2016,08,23,12,46,20.40
2016,08,23,12,47,20.40
2016,08,23,12,48,20.30
2016,08,23,12,49,20.30
2016,08,23,12,50,20.20
2016,08,23,12,51,20.20
2016,08,23,12,52,20.20
2016,08,23,12,53,20.20
2016,08,23,12,54,20.20
2016,08,23,12,55,20.20
2016,08,23,12,56,20.20
2016,08,23,12,57,20.20
2016,08,23,12,58,20.20
2016,08,23,12,59,20.20
2016,08,23,13,00,20.30
2016,08,23,13,01,20.30
2016,08,23,13,02,20.30
2016,08,23,13,03,20.20
2016,08,23,13,04,20.20
2016,08,23,13,05,20.20
2016,08,23,13,06,20.20
2016,08,23,13,07,20.10
2016,08,23,13,08,20.10
2016,08,23,13,09,20.10
2016,08,23,13,10,20.10
2016,08,23,13,11,20.10
2016,08,23,13,12,20.10
2016,08,23,13,13,20.10
2016,08,23,13,14,20.10
2016,08,23,13,15,20.20
2016,08,23,13,16,20.20
2016,08,23,13,17,20.30
2016,08,23,13,18,20.30
2016,08,23,13,19,20.30
2016,08,23,13,20,20.40
2016,08,23,13,21,20.40
2016,08,23,13,22,20.50
2016,08,23,13,23,20.50
2016,08,23,13,24,20.60
2016,08,23,13,25,20.60
2016,08,23,13,26,20.60
2016,08,23,13,27,20.70
2016,08,23,13,28,20.70
2016,08,23,13,29,20.70
2016,08,23,13,30,20.70
2016,08,23,13,31,20.70
2016,08,23,13,32,20.70
2016,08,23,13,33,20.70
2016,08,23,13,34,20.70
2016,08,23,13,35,20.70
2016,08,23,13,36,20.70
2016,08,23,13,37,20.70
2016,08,23,13,38,20.80
2016,08,23,13,39,20.80
2016,08,23,13,40,20.90
2016,08,23,13,41,21.00
2016,08,23,13,42,21.10
2016,08,23,13,43,21.20
2016,08,23,13,44,21.20
2016,08,23,13,45,21.20
2016,08,23,13,46,21.20
2016,08,23,13,47,21.20
2016,08,23,13,48,21.20
2016,08,23,13,49,21.60
2016,08,23,13,50,21.70
2016,08,23,13,51,21.70
2016,08,23,13,52,21.70
2016,08,23,13,53,21.70
2016,08,23,13,54,21.50
2016,08,23,13,55,21.40
2016,08,23,13,56,21.20
2016,08,23,13,57,21.10
2016,08,23,13,58,21.00
2016,08,23,13,59,20.90
2016,08,23,14,00,20.80
2016,08,23,14,01,20.80
2016,08,23,14,02,20.80
2016,08,23,14,03,20.80
2016,08,23,14,04,20.80
2016,08,23,14,05,20.80
2016,08,23,14,06,20.70
2016,08,23,14,07,20.70
2016,08,23,14,08,20.60
2016,08,23,14,09,20.60
2016,08,23,14,10,20.60
2016,08,23,14,11,20.60
2016,08,23,14,12,20.60
2016,08,23,14,13,20.70
2016,08,23,14,14,20.80
2016,08,23,14,15,20.80
2016,08,23,14,16,20.90
2016,08,23,14,17,20.90
2016,08,23,14,18,20.90
2016,08,23,14,19,20.80
2016,08,23,14,20,20.80
2016,08,23,14,21,20.80
2016,08,23,14,22,20.80
2016,08,23,14,23,20.90
2016,08,23,14,24,20.90
2016,08,23,14,25,20.90
2016,08,23,14,26,21.00
2016,08,23,14,27,21.00
2016,08,23,14,28,21.10
2016,08,23,14,29,21.20
2016,08,23,14,30,21.30
2016,08,23,14,31,21.40
2016,08,23,14,32,21.50
2016,08,23,14,33,21.50
2016,08,23,14,34,21.60
2016,08,23,14,35,21.60
2016,08,23,14,36,21.60
2016,08,23,14,37,21.60
2016,08,23,14,38,21.60
2016,08,23,14,39,21.60
2016,08,23,14,40,21.60
2016,08,23,14,41,21.60
2016,08,23,14,42,21.60
2016,08,23,14,43,21.60
2016,08,23,14,44,21.60
2016,08,23,14,45,21.60
2016,08,23,14,46,21.60
2016,08,23,14,47,21.60
2016,08,23,14,48,21.60
2016,08,23,14,49,21.60
2016,08,23,14,50,21.70
2016,08,23,14,51,21.70
2016,08,23,14,52,21.80
2016,08,23,14,53,21.80
2016,08,23,14,54,21.80
2016,08,23,14,55,21.80
2016,08,23,14,56,21.90
2016,08,23,14,57,22.00
2016,08,23,14,58,22.10
2016,08,23,14,59,22.20
2016,08,23,15,00,22.20
2016,08,23,15,01,22.20
2016,08,23,15,02,22.20
2016,08,23,15,03,22.10
2016,08,23,15,04,22.10
2016,08,23,15,05,22.00
2016,08,23,15,06,22.00
2016,08,23,15,07,22.10
2016,08,23,15,08,22.10
2016,08,23,15,09,22.20
2016,08,23,15,10,22.30
2016,08,23,15,11,22.40
2016,08,23,15,12,22.50
2016,08,23,15,13,22.50
2016,08,23,15,14,22.60
2016,08,23,15,15,22.60
2016,08,23,15,16,22.70
2016,08,23,15,17,22.70
2016,08,23,15,18,22.70
2016,08,23,15,19,22.80
2016,08,23,15,20,22.80
2016,08,23,15,21,22.90
2016,08,23,15,22,22.90
2016,08,23,15,23,22.90
2016,08,23,15,24,22.90
2016,08,23,15,25,22.90
2016,08,23,15,26,22.90
2016,08,23,15,27,22.80
2016,08,23,15,28,22.80
2016,08,23,15,29,22.70
2016,08,23,15,30,22.70
2016,08,23,15,31,22.60
2016,08,23,15,32,22.60
2016,08,23,15,33,22.60
2016,08,23,15,34,22.50
2016,08,23,15,35,22.50
2016,08,23,15,36,22.50
2016,08,23,15,37,22.40
2016,08,23,15,38,22.40
2016,08,23,15,39,22.30
2016,08,23,15,40,22.40
2016,08,23,15,41,22.40
2016,08,23,15,42,22.40
2016,08,23,15,43,22.50
2016,08,23,15,44,22.60
2016,08,23,15,45,22.60
2016,08,23,15,46,22.60
2016,08,23,15,47,22.60
2016,08,23,15,48,22.60
2016,08,23,15,49,22.70
2016,08,23,15,50,22.70
2016,08,23,15,51,22.80
2016,08,23,15,52,22.80
2016,08,23,15,53,22.80
2016,08,23,15,54,22.80
2016,08,23,15,55,22.90
2016,08,23,15,56,22.90
2016,08,23,15,57,22.90
2016,08,23,15,58,22.90
2016,08,23,15,59,23.00
2016,08,23,16,00,23.00
2016,08,23,16,01,23.00
2016,08,23,16,02,23.00
2016,08,23,16,03,22.90
2016,08,23,16,04,22.80
2016,08,23,16,05,22.80
2016,08,23,16,06,22.80
2016,08,23,16,07,22.70
2016,08,23,16,08,22.70
2016,08,23,16,09,22.60
2016,08,23,16,10,22.60
2016,08,23,16,11,22.60
2016,08,23,16,12,22.60
2016,08,23,16,13,22.60
2016,08,23,16,14,22.60
2016,08,23,16,15,22.60
2016,08,23,16,16,22.70
2016,08,23,16,17,22.70
2016,08,23,16,18,22.80
2016,08,23,16,19,22.90
2016,08,23,16,20,22.90
2016,08,23,16,21,22.90
2016,08,23,16,22,22.90
2016,08,23,16,23,22.80
2016,08,23,16,24,22.80
2016,08,23,16,25,22.70
2016,08,23,16,26,22.70
2016,08,23,16,27,22.60
2016,08,23,16,28,22.60
2016,08,23,16,29,22.60
2016,08,23,16,30,22.60
2016,08,23,16,31,22.60
2016,08,23,16,32,22.60
2016,08,23,16,33,22.50
2016,08,23,16,34,22.50
2016,08,23,16,35,22.50
2016,08,23,16,36,22.40
2016,08,23,16,37,22.30
2016,08,23,16,38,22.20
2016,08,23,16,39,22.10
2016,08,23,16,40,22.00
2016,08,23,16,41,21.90
2016,08,23,16,42,22.00
2016,08,23,16,43,22.00
2016,08,23,16,44,22.10
2016,08,23,16,45,22.10
2016,08,23,16,46,22.20
2016,08,23,16,47,22.10
2016,08,23,16,48,22.00
2016,08,23,16,49,21.90
2016,08,23,16,50,21.80
2016,08,23,16,51,21.70
2016,08,23,16,52,21.70
2016,08,23,16,53,21.70
2016,08,23,16,54,21.70
2016,08,23,16,55,21.80
2016,08,23,16,56,21.80
2016,08,23,16,57,21.90
2016,08,23,16,58,21.90
2016,08,23,16,59,21.90
2016,08,23,17,00,21.90
2016,08,23,17,01,21.90
2016,08,23,17,02,21.90
2016,08,23,17,03,22.00
2016,08,23,17,04,22.00
2016,08,23,17,05,21.90
2016,08,23,17,06,21.90
2016,08,23,17,07,21.90
2016,08,23,17,08,21.80
2016,08,23,17,09,21.80
2016,08,23,17,10,21.70
2016,08,23,17,11,21.70
2016,08,23,17,12,21.60
2016,08,23,17,13,21.50
2016,08,23,17,14,21.50
2016,08,23,17,15,21.40
2016,08,23,17,16,21.40
2016,08,23,17,17,21.30
2016,08,23,17,18,21.30
2016,08,23,17,19,21.30